Regional Weather Roundup
Issued by NWS Little Rock, AR

Home | Current Version | Previous Version | Graphics & Text | Print | Product List | Glossary On
Versions: 1 2 3 4 5 6 7 8 9 10 11 12 13 14 15 16 17 18 19 20 21 22 23 24 25 26 27 28 29 30 31 32 33 34 35 36 37 38 39 40 41 42 43 44 45 46 47 48 49 50
444
ASUS44 KLZK 252205
RWRLZK

WEATHER ROUNDUP FOR ARKANSAS
NATIONAL WEATHER SERVICE LITTLE ROCK AR
500 PM CDT SUN JUN 25 2017

NOTE: "FAIR" INDICATES FEW OR NO CLOUDS BELOW 12,000 FEET WITH NO
SIGNIFICANT WEATHER AND/OR OBSTRUCTIONS TO VISIBILITY.

ARZ001-003-010-029-252300-
NORTHWEST ARKANSAS

CITY           SKY/WX    TMP DP  RH WIND       PRES   REMARKS
FAYETTEVILLE   SUNNY     82  51  34 SE3       30.23F
FORT SMITH     SUNNY     87  55  33 E9        30.18F HX  85
HARRISON       SUNNY     83  47  28 VRB3      30.24F
BENTONVILLE    SUNNY     84  52  32 N5        30.25F
ROGERS         SUNNY     82  54  37 N7        30.25S
SILOAM SPGS    SUNNY     84  52  32 CALM      30.23S
HIGHFILL       SUNNY     86  52  30 VRB5      30.23F
SPRINGDALE     SUNNY     82  48  30 E5        30.25F
$$

ARZ004-005-016-252300-
NORTH CENTRAL ARKANSAS

CITY           SKY/WX    TMP DP  RH WIND       PRES   REMARKS
BATESVILLE     SUNNY     82  52  34 SW3       30.20S
FLIPPIN        SUNNY     86  48  26 NE3       30.20S
MTN HOME       SUNNY     82  52  35 W5        30.21
$$

ARZ040-041-252300-
WEST CENTRAL ARKANSAS

CITY           SKY/WX    TMP DP  RH WIND       PRES   REMARKS
MENA           SUNNY     88  50  27 E7        30.21S HX  85
MOUNT IDA      SUNNY     86  52  30 VRB3      30.18F
$$

ARZ009-017-025-026-028-252300-
NORTHEAST ARKANSAS

CITY           SKY/WX    TMP DP  RH WIND       PRES   REMARKS
CORNING        LGT RAIN  84  59  42 S10       30.18F
JONESBORO      SUNNY     86  50  28 VRB5      30.18F
WALNUT RIDGE   SUNNY     84  52  32 SW8       30.18F
BLYTHEVILLE    SUNNY     85  53  33 VRB5      30.18F
$$

ARZ022-023-033-042-044-252300-
CENTRAL ARKANSAS

CITY           SKY/WX    TMP DP  RH WIND       PRES   REMARKS
LITTLE ROCK    MOSUNNY   83  54  36 E8        30.19F
N LITTLE ROCK    N/A     84  56  38 E5        30.19F
JACKSONVILLE   SUNNY     85  57  37 E7        30.19F
CONWAY           N/A     86  52  30 SE7       30.18S
SEARCY         SUNNY     86  50  28 SE3       30.21S
HOT SPRINGS    SUNNY     85  59  41 S7        30.19F
RUSSELLVILLE   SUNNY     84  52  33 S6        30.19F
CLINTON        FAIR      84  52  32 CALM      30.20F
$$

ARZ036-252300-
EAST ARKANSAS

CITY           SKY/WX    TMP DP  RH WIND       PRES   REMARKS
WEST MEMPHIS   SUNNY     84  50  30 NE6       30.17F
$$

ARZ050-053-066-070-073-252300-
SOUTHWEST ARKANSAS

CITY           SKY/WX    TMP DP  RH WIND       PRES   REMARKS
CAMDEN         SUNNY     86  57  37 NE8       30.17F HX  85
TEXARKANA      SUNNY     84  59  42 NE6       30.17F
EL DORADO      SUNNY     84  61  45 E8        30.17F
DE QUEEN       SUNNY     86  60  41 E7        30.16F HX  86
$$

ARZ056-057-069-252300-
SOUTHEAST ARKANSAS

CITY           SKY/WX    TMP DP  RH WIND       PRES   REMARKS
PINE BLUFF     SUNNY     82  60  47 NE5       30.18F
STUTTGART      SUNNY    N/A N/A N/A NE7       30.19F
MONTICELLO     SUNNY     84  61  45 VRB7      30.18F

$$






USA.gov is the U.S. government's official web portal to all federal, state and local government web resources and services.